Location: Newark
(34.0131°N, 4.3314°W)
Time: 19:52:37
(UTC+00:00)

Tiros 1 - All Passes

Search period start: 16 October 2019 00:00
Search period end: 26 October 2019 00:00
Orbit: 630 x 664 km, 48.4° (Epoch: 16 October)

Date Brightness Start Highest point End Pass type
(mag) Time Alt. Az. Time Alt. Az. Time Alt. Az.
16 Oct - 01:36:49 10° S 01:40:39 24° SE 01:44:31 10° ENE night (unlit)
16 Oct - 03:17:54 10° WSW 03:22:36 55° NW 03:27:20 10° NE visible
16 Oct - 05:02:17 10° WNW 05:05:38 18° NNW 05:08:59 10° NNE visible
16 Oct - 06:46:40 10° NNW 06:49:21 15° N 06:52:04 10° NE daylight
16 Oct - 08:28:37 10° NW 08:32:50 29° NNE 08:37:00 10° E daylight
16 Oct - 10:10:33 10° WNW 10:15:17 60° SW 10:19:58 10° SE daylight
17 Oct - 02:01:48 10° SW 02:06:29 60° SE 02:11:13 10° ENE night (unlit)
17 Oct - 03:44:45 10° W 03:48:56 29° NNW 03:53:09 10° NE visible
17 Oct - 05:29:42 10° NW 05:32:24 15° N 05:35:06 10° NNE visible
17 Oct - 07:12:47 10° NNW 07:16:08 18° NNE 07:19:29 10° ENE daylight
17 Oct - 08:54:26 10° NW 08:59:10 55° NE 09:03:51 10° ESE daylight
17 Oct - 10:37:16 10° WNW 10:41:07 24° SW 10:44:56 10° S daylight
18 Oct - 00:47:00 10° S 00:50:40 22° SE 00:54:21 10° E night (unlit)
18 Oct - 02:27:50 10° WSW 02:32:33 60° NW 02:37:19 10° NE visible
18 Oct - 04:12:06 10° WNW 04:15:32 19° NNW 04:18:58 10° NNE visible
18 Oct - 05:56:36 10° NNW 05:59:15 14° N 06:01:55 10° NE visible
18 Oct - 07:38:36 10° NW 07:42:45 28° NNE 07:46:52 10° E daylight
18 Oct - 09:20:30 10° WNW 09:25:16 67° SW 09:29:59 10° SE daylight
19 Oct - 01:11:50 10° SW 01:16:28 55° SE 01:21:09 10° ENE night (unlit)
19 Oct - 02:54:37 10° W 02:58:52 31° NNW 03:03:09 10° NE visible
19 Oct - 04:39:33 10° NW 04:42:18 15° N 04:45:03 10° NNE visible
19 Oct - 06:22:46 10° NNW 06:26:03 18° NNE 06:29:19 10° ENE daylight
19 Oct - 08:04:25 10° NW 08:09:07 51° NNE 08:13:47 10° ESE daylight
19 Oct - 09:47:06 10° WNW 09:51:07 27° SW 09:55:07 10° S daylight
19 Oct - 23:57:14 10° S 00:00:40 20° SE 00:04:08 10° E night (unlit)
20 Oct - 01:37:47 10° WSW 01:42:31 65° NW 01:47:17 10° NE night (unlit)
20 Oct - 03:21:56 10° WNW 03:25:25 20° NNW 03:28:57 10° NNE visible
20 Oct - 05:06:31 10° NNW 05:09:08 14° N 05:11:46 10° NE visible
20 Oct - 06:48:36 10° NNW 06:52:41 26° NNE 06:56:43 10° E daylight
20 Oct - 08:30:26 10° NW 08:35:15 73° SW 08:40:00 10° SE daylight
20 Oct - 10:16:25 10° WSW 10:16:47 10° SW 10:17:08 10° SW daylight
21 Oct - 00:21:53 10° SSW 00:26:27 50° SE 00:31:04 10° ENE night (unlit)
21 Oct - 02:04:30 10° W 02:08:48 33° NNW 02:13:08 10° NE night (unlit)
21 Oct - 03:49:24 10° NW 03:52:11 15° N 03:54:59 10° NNE visible
21 Oct - 05:32:45 10° NNW 05:35:56 17° NNE 05:39:08 10° NE visible
21 Oct - 07:14:24 10° NW 07:19:04 47° NNE 07:23:42 10° ESE daylight
21 Oct - 08:56:57 10° WNW 09:01:07 30° SW 09:05:15 10° SSE daylight
21 Oct - 23:07:29 10° S 23:10:41 18° SE 23:13:54 10° E night (unlit)
22 Oct - 00:47:45 10° WSW 00:52:28 70° NW 00:57:15 10° NE night (unlit)
22 Oct - 02:31:46 10° WNW 02:35:20 20° NNW 02:38:57 10° NNE visible
22 Oct - 04:16:26 10° NNW 04:19:01 14° N 04:21:37 10° NE visible
22 Oct - 05:58:36 10° NNW 06:02:35 25° NNE 06:06:34 10° E visible
22 Oct - 07:40:23 10° NW 07:45:13 80° SW 07:50:00 10° SE daylight
22 Oct - 09:25:14 10° WSW 09:26:48 11° SW 09:28:21 10° SW daylight
22 Oct - 23:31:57 10° SSW 23:36:27 45° SE 23:40:59 10° ENE night (unlit)
23 Oct - 01:14:23 10° W 01:18:44 35° NNW 01:23:07 10° NE night (unlit)
23 Oct - 02:59:14 10° NW 03:02:04 15° N 03:04:55 10° NNE visible
23 Oct - 04:42:44 10° NNW 04:45:50 17° NNE 04:48:57 10° NE visible
23 Oct - 06:24:23 10° NW 06:29:01 44° NNE 06:33:36 10° ESE daylight
23 Oct - 08:06:50 10° WNW 08:11:07 33° SW 08:15:23 10° SSE daylight
23 Oct - 22:17:47 10° SSE 22:20:42 16° SE 22:23:38 10° E night (unlit)
23 Oct - 23:57:43 10° WSW 00:02:26 77° NW 00:07:13 10° NE night (unlit)
24 Oct - 01:41:36 10° WNW 01:45:15 21° NNW 01:48:55 10° NNE night (unlit)
24 Oct - 03:26:21 10° NNW 03:28:54 14° N 03:31:29 10° NE visible
24 Oct - 05:08:35 10° NNW 05:12:30 24° NNE 05:16:24 10° ENE visible
24 Oct - 06:50:21 10° NW 06:55:11 87° SW 06:59:59 10° SE daylight
24 Oct - 08:34:41 10° W 08:36:49 13° SW 08:38:56 10° SSW daylight
24 Oct - 22:42:02 10° SSW 22:46:26 41° SE 22:50:54 10° ENE night (unlit)
25 Oct - 00:24:17 10° W 00:28:40 37° NNW 00:33:06 10° NE night (unlit)
25 Oct - 02:09:04 10° NW 02:11:58 16° N 02:14:51 10° NNE night (unlit)
25 Oct - 03:52:42 10° NNW 03:55:43 16° NNE 03:58:45 10° NE visible
25 Oct - 05:34:23 10° NW 05:38:57 41° NNE 05:43:30 10° ESE visible
25 Oct - 07:16:43 10° WNW 07:21:07 36° SW 07:25:29 10° SSE daylight
25 Oct - 21:28:09 10° SSE 21:30:43 15° SE 21:33:19 10° E night (unlit)
25 Oct - 23:07:41 10° SW 23:12:24 83° NW 23:17:11 10° NE night (unlit)
